EW9259 Weather Reports


time (UTC)temp
F
wind
direction
speed
knots
gust
knots
rain 1hr
in
rain 24hr
in
rain mn
in
humidity
%
barometer
mb
20260507154004 57 59 3.5 9.6 0.00 0.00 0.00 74 1020.0
20260507153504 57 50 3.5 9.6 0.00 0.00 0.00 74 1020.0
20260507153004 57 41 3.5 9.6 0.00 0.00 0.00 74 1020.2
20260507152004 57 56 4.3 11.3 0.00 0.00 0.00 74 1020.2
20260507151506 57 66 3.5 9.6 0.00 0.00 0.00 75 1020.2
20260507151004 56 68 4.3 9.6 0.00 0.00 0.00 76 1020.2
20260507150504 56 71 5.2 11.3 0.00 0.00 0.00 76 1020.3
20260507150005 56 57 4.3 11.3 0.00 0.00 0.00 76 1020.4
20260507145504 56 42 4.3 11.3 0.00 0.00 0.00 76 1020.4
20260507144504 56 43 4.3 9.6 0.00 0.00 0.00 77 1020.2
20260507144004 56 46 4.3 9.6 0.00 0.00 0.00 77 1020.0
20260507143504 55 52 3.5 9.6 0.00 0.00 0.00 77 1020.0
20260507143004 56 52 2.6 9.6 0.00 0.00 0.00 78 1020.1
20260507142504 55 47 4.3 12.2 0.00 0.00 0.00 79 1020.3
20260507142004 55 51 4.3 12.2 0.00 0.00 0.00 79 1020.3
20260507141504 55 62 3.5 10.4 0.00 0.00 0.00 80 1020.4
20260507141004 55 59 3.5 10.4 0.00 0.00 0.00 80 1020.5
20260507140504 55 58 3.5 10.4 0.00 0.00 0.00 81 1020.3
20260507140006 55 57 3.5 8.7 0.00 0.00 0.00 82 1020.5
20260507135504 55 54 4.3 9.6 0.00 0.00 0.00 82 1020.5
20260507135006 54 68 4.3 9.6 0.00 0.00 0.00 82 1020.5
20260507134504 54 80 3.5 8.7 0.00 0.00 0.00 82 1020.6
20260507134003 54 73 2.6 8.7 0.00 0.00 0.00 83 1020.5
20260507133004 54 0 0.0 1.7 0.00 0.00 0.00 83 1020.6
20260507132503 54 63 0.9 7.0 0.00 0.00 0.00 83 1020.6
20260507132004 54 56 2.6 7.8 0.00 0.00 0.00 83 1020.5
20260507131504 54 56 2.6 8.7 0.00 0.00 0.00 83 1020.4
20260507131003 54 55 2.6 8.7 0.00 0.00 0.00 83 1020.5
20260507130504 54 42 2.6 10.4 0.00 0.00 0.00 83 1020.5
20260507130004 54 37 0.9 10.4 0.00 0.00 0.00 84 1020.4
20260507125503 54 0 0.0 0.0 0.00 0.00 0.00 84 1020.4
20260507125003 54 0 0.0 0.9 0.00 0.00 0.00 85 1020.4
20260507124505 53 41 0.9 7.0 0.00 0.00 0.00 85 1020.3
20260507124003 53 33 0.9 8.7 0.00 0.00 0.00 85 1020.2
20260507123004 53 0 0.0 0.9 0.00 0.00 0.00 85 1020.3
20260507122504 53 52 0.9 8.7 0.00 0.01 0.00 85 1020.3
20260507121504 54 37 1.7 8.7 0.00 0.05 0.00 85 1020.0
20260507121004 54 36 1.7 10.4 0.00 0.05 0.00 84 1019.9
20260507120503 54 37 1.7 10.4 0.00 0.06 0.00 84 1019.9
20260507120005 54 48 2.6 13.0 0.00 0.06 0.00 84 1020.0
20260507115504 54 39 3.5 13.0 0.00 0.06 0.00 84 1019.8
20260507115003 54 33 3.5 10.4 0.00 0.06 0.00 83 1019.8
20260507113504 55 37 3.5 9.6 0.00 0.08 0.00 83 1019.6
20260507113005 55 33 5.2 9.6 0.00 0.08 0.00 83 1019.4
20260507112504 55 33 4.3 8.7 0.00 0.08 0.00 83 1019.4
20260507112004 55 33 3.5 8.7 0.00 0.08 0.00 83 1019.2
20260507111003 55 33 4.3 13.9 0.00 0.08 0.00 83 1019.3
20260507110503 55 31 4.3 13.9 0.00 0.08 0.00 83 1019.2
20260507110004 55 30 4.3 14.8 0.00 0.08 0.00 83 1019.3
20260507105504 55 35 4.3 14.8 0.00 0.08 0.00 84 1019.3
20260507105004 55 35 5.2 12.2 0.00 0.08 0.00 84 1019.1
20260507104504 55 32 5.2 12.2 0.00 0.08 0.00 84 1019.2
20260507104004 55 34 5.2 12.2 0.00 0.08 0.00 84 1019.1
20260507103504 56 34 4.3 11.3 0.00 0.08 0.00 84 1019.1
20260507102504 56 39 0.9 9.6 0.00 0.08 0.00 83 1019.2
20260507102004 56 19 0.9 10.4 0.00 0.08 0.00 83 1019.3
20260507101004 56 0 0.0 7.8 0.00 0.08 0.00 82 1019.4
20260507100503 56 0 0.0 7.8 0.00 0.08 0.00 82 1019.5
20260507100005 56 0 0.0 5.2 0.00 0.08 0.00 82 1019.5
20260507095504 56 0 0.0 5.2 0.00 0.08 0.00 82 1019.4
20260507094504 56 0 0.0 6.1 0.00 0.08 0.00 82 1019.4
20260507093503 56 0 0.0 7.0 0.00 0.08 0.00 82 1019.2
20260507093004 56 0 0.0 8.7 0.00 0.08 0.00 82 1019.2
20260507092504 56 59 0.9 9.6 0.00 0.08 0.00 82 1019.1
20260507091504 56 0 0.0 8.7 0.00 0.08 0.00 81 1019.0
20260507091004 56 0 0.0 4.3 0.00 0.08 0.00 82 1019.0
20260507090503 56 0 0.0 5.2 0.00 0.08 0.00 81 1018.8
20260507090005 56 0 0.0 5.2 0.00 0.08 0.00 81 1018.8
20260507085503 57 0 0.0 3.5 0.00 0.08 0.00 81 1018.7
20260507084504 57 0 0.0 2.6 0.00 0.08 0.00 80 1018.6
20260507083503 57 0 0.0 5.2 0.00 0.08 0.00 80 1018.5
20260507082503 57 0 0.0 0.9 0.00 0.08 0.00 81 1018.5
20260507082003 57 0 0.0 0.0 0.00 0.08 0.00 81 1018.5
20260507081504 57 0 0.0 0.0 0.00 0.08 0.00 81 1018.3
20260507080504 57 0 0.0 0.9 0.00 0.08 0.00 81 1018.2
20260507080005 57 0 0.0 3.5 0.00 0.08 0.00 81 1018.2
20260507075504 57 0 0.0 3.5 0.00 0.08 0.00 81 1018.3
20260507074004 58 0 0.0 0.0 0.00 0.08 0.00 80 1018.1
20260507073503 58 0 0.0 0.0 0.00 0.08 0.00 80 1018.1
20260507073004 58 0 0.0 0.0 0.00 0.08 0.00 80 1017.8
20260507072503 58 0 0.0 0.9 0.00 0.08 0.00 80 1017.8
20260507072004 58 0 0.0 1.7 0.00 0.08 0.00 79 1017.7
20260507071504 58 0 0.0 1.7 0.00 0.08 0.00 79 1017.7
20260507071004 58 0 0.0 1.7 0.00 0.08 0.00 80 1017.7
20260507070504 58 0 0.0 1.7 0.00 0.08 0.00 79 1017.7
20260507070009 58 0 0.0 0.0 0.00 0.08 0.00 79 1017.7
20260507065504 58 0 0.0 0.9 0.00 0.08 0.00 79 1017.7
20260507064505 58 0 0.0 1.7 0.00 0.08 0.00 79 1017.4
20260507063504 59 0 0.0 0.9 0.00 0.08 0.00 81 1017.2
20260507063005 58 0 0.0 0.9 0.00 0.08 0.00 80 1017.0
20260507062504 58 0 0.0 0.0 0.00 0.08 0.00 80 1016.9
20260507062005 58 0 0.0 0.0 0.00 0.08 0.00 80 1016.8
20260507061505 58 0 0.0 0.0 0.00 0.08 0.00 80 1016.9
20260507061005 58 0 0.0 3.5 0.00 0.08 0.00 80 1016.8
20260507060505 59 0 0.0 3.5 0.00 0.08 0.00 80 1016.8
20260507055505 59 0 0.0 0.0 0.00 0.08 0.00 79 1016.9
20260507055006 59 0 0.0 0.0 0.00 0.08 0.00 79 1016.9
20260507054505 59 0 0.0 1.7 0.00 0.08 0.00 79 1016.9
20260507054006 59 0 0.0 1.7 0.00 0.08 0.00 79 1017.0
20260507053504 59 0 0.0 0.9 0.00 0.08 0.00 78 1016.9
20260507053005 59 0 0.0 0.9 0.00 0.08 0.00 78 1017.0
20260507052506 60 0 0.0 0.9 0.00 0.08 0.00 78 1016.9
20260507052004 60 0 0.0 0.9 0.00 0.08 0.00 78 1016.8
20260507051005 60 0 0.0 7.8 0.00 0.08 0.00 78 1016.8
20260507050505 60 78 0.9 7.8 0.00 0.08 0.00 78 1016.6
20260507050006 60 0 0.0 6.1 0.00 0.08 0.00 78 1016.9
20260507045505 61 0 0.0 2.6 0.00 0.08 0.08 78 1016.8
20260507045005 61 0 0.0 2.6 0.00 0.08 0.08 78 1016.7
20260507044506 61 0 0.0 2.6 0.00 0.08 0.08 78 1016.7
20260507044004 61 0 0.0 2.6 0.00 0.08 0.08 79 1016.7
20260507043005 62 0 0.0 0.0 0.00 0.08 0.08 81 1016.5
20260507042504 62 0 0.0 0.9 0.00 0.08 0.08 80 1016.3
20260507042005 62 0 0.0 0.9 0.00 0.08 0.08 80 1016.3
20260507041505 62 0 0.0 0.0 0.00 0.08 0.08 79 1016.4
20260507041004 62 0 0.0 0.0 0.00 0.08 0.08 79 1016.2
20260507040005 62 0 0.0 0.0 0.00 0.08 0.08 79 1016.0
20260507035504 63 0 0.0 0.0 0.00 0.08 0.08 78 1015.9
20260507035005 63 0 0.0 0.0 0.00 0.08 0.08 78 1015.7
20260507034506 63 0 0.0 3.5 0.00 0.08 0.08 78 1015.6
20260507034005 63 115 0.9 4.3 0.00 0.08 0.08 77 1015.5
20260507033505 63 118 0.9 4.3 0.00 0.08 0.08 77 1015.3
20260507033005 63 0 0.0 3.5 0.00 0.08 0.08 77 1015.2
20260507032004 64 0 0.0 2.6 0.00 0.08 0.08 76 1015.2
20260507031505 64 109 0.9 5.2 0.00 0.08 0.08 75 1015.1
20260507031005 64 0 0.0 5.2 0.00 0.08 0.08 75 1015.0
20260507030005 64 115 0.9 5.2 0.00 0.08 0.08 74 1014.9
20260507025504 65 112 0.9 5.2 0.00 0.08 0.08 74 1015.0
20260507025005 65 109 0.9 5.2 0.00 0.08 0.08 73 1015.0
20260507024504 65 0 0.0 0.0 0.00 0.08 0.08 73 1014.9
20260507024005 65 0 0.0 0.0 0.00 0.08 0.08 72 1014.8
20260507022505 66 0 0.0 0.0 0.00 0.08 0.08 71 1014.5
20260507022005 66 0 0.0 0.0 0.00 0.08 0.08 70 1014.4
20260507021505 66 0 0.0 0.0 0.00 0.08 0.08 70 1014.3
20260507020504 67 119 0.9 9.6 0.00 0.08 0.08 68 1014.4
20260507015506 68 0 0.0 0.9 0.00 0.08 0.08 66 1014.1
20260507015004 68 0 0.0 0.0 0.00 0.08 0.08 65 1014.1
20260507014505 68 0 0.0 0.0 0.00 0.08 0.08 64 1014.1
20260507014005 68 0 0.0 0.0 0.00 0.08 0.08 64 1014.0
20260507013504 69 0 0.0 0.0 0.00 0.08 0.08 64 1013.9
20260507013005 69 0 0.0 0.0 0.00 0.08 0.08 63 1013.9
20260507012505 69 0 0.0 0.0 0.00 0.08 0.08 63 1013.9
20260507012004 69 0 0.0 0.0 0.00 0.08 0.08 63 1013.9
20260507011505 69 0 0.0 0.9 0.00 0.08 0.08 63 1013.9
20260507010504 70 0 0.0 0.0 0.00 0.08 0.08 63 1013.6
20260507005504 70 0 0.0 4.3 0.00 0.08 0.08 62 1013.6
20260507005005 71 0 0.0 4.3 0.00 0.08 0.08 62 1013.6
20260507004505 71 95 0.9 7.0 0.00 0.08 0.08 62 1013.5
20260507004005 71 88 1.7 7.0 0.00 0.08 0.08 62 1013.5
20260507002504 70 114 0.9 6.1 0.00 0.08 0.08 62 1013.3
20260507002005 71 0 0.0 4.3 0.00 0.08 0.08 62 1013.3
20260507001505 71 0 0.0 7.8 0.00 0.08 0.08 62 1013.2
20260507001005 71 0 0.0 7.8 0.00 0.08 0.08 62 1013.2
20260507000005 71 0 0.0 0.0 0.00 0.08 0.08 61 1013.2
20260506235505 71 0 0.0 0.0 0.00 0.08 0.08 61 1013.4
20260506235004 71 0 0.0 0.0 0.00 0.08 0.08 61 1013.4
20260506234505 71 0 0.0 0.0 0.00 0.08 0.08 62 1013.3
20260506234005 71 0 0.0 0.0 0.00 0.08 0.08 61 1013.3
20260506233504 71 0 0.0 0.0 0.00 0.08 0.08 61 1013.1
20260506233005 71 0 0.0 0.0 0.00 0.08 0.08 61 1013.2
20260506232504 71 0 0.0 0.0 0.00 0.08 0.08 61 1013.3
20260506232004 71 0 0.0 0.0 0.00 0.08 0.08 62 1013.3
20260506231505 71 0 0.0 0.0 0.00 0.08 0.08 62 1013.3
20260506231005 72 0 0.0 0.0 0.00 0.08 0.08 61 1013.2
20260506230505 72 0 0.0 0.0 0.00 0.08 0.08 61 1013.2
20260506230005 72 0 0.0 0.0 0.00 0.08 0.08 61 1013.3
20260506225504 72 0 0.0 0.0 0.00 0.08 0.08 60 1013.2
20260506224505 72 0 0.0 0.0 0.00 0.08 0.08 61 1013.2
20260506224004 72 0 0.0 0.0 0.00 0.08 0.08 61 1013.1
20260506223505 72 0 0.0 0.0 0.00 0.08 0.08 62 1013.0
20260506222004 72 0 0.0 0.0 0.00 0.08 0.08 61 1013.1
20260506221505 72 0 0.0 0.0 0.00 0.08 0.08 61 1013.1
20260506221004 72 0 0.0 0.0 0.00 0.08 0.08 61 1013.1
20260506220504 72 0 0.0 0.0 0.00 0.08 0.08 62 1013.1
20260506220005 72 0 0.0 0.0 0.00 0.08 0.08 61 1013.0
20260506215505 72 0 0.0 0.0 0.00 0.08 0.08 62 1013.2
20260506215004 72 0 0.0 0.0 0.00 0.08 0.08 61 1013.2
20260506214004 72 0 0.0 0.0 0.00 0.08 0.08 61 1013.4
20260506213505 72 0 0.0 0.0 0.00 0.08 0.08 62 1013.4
20260506213005 71 0 0.0 0.0 0.00 0.08 0.08 63 1013.4
20260506212504 71 0 0.0 0.0 0.00 0.08 0.08 63 1013.4
20260506212004 70 0 0.0 0.0 0.00 0.08 0.08 65 1013.4
20260506211505 70 0 0.0 0.0 0.00 0.08 0.08 64 1013.5
20260506210504 70 0 0.0 1.7 0.00 0.08 0.08 63 1013.4
20260506205504 70 0 0.0 0.0 0.00 0.08 0.08 64 1013.6
20260506205004 70 0 0.0 0.0 0.00 0.08 0.08 65 1013.6
20260506204505 70 0 0.0 0.0 0.00 0.08 0.08 64 1013.8
20260506204004 69 0 0.0 0.0 0.00 0.08 0.08 65 1013.8
20260506203504 69 0 0.0 0.0 0.00 0.08 0.08 65 1013.8
20260506203005 69 0 0.0 0.0 0.00 0.08 0.08 65 1013.9
20260506202505 68 0 0.0 0.0 0.00 0.08 0.08 68 1014.2
20260506202004 68 0 0.0 0.0 0.00 0.08 0.08 68 1014.2
20260506201504 68 0 0.0 0.9 0.00 0.08 0.08 69 1014.4
20260506201004 67 0 0.0 0.9 0.00 0.08 0.08 69 1014.4
20260506200505 67 0 0.0 0.9 0.00 0.08 0.08 69 1014.4
20260506200005 66 0 0.0 0.9 0.00 0.08 0.08 71 1014.6
20260506195504 66 0 0.0 0.0 0.00 0.08 0.08 70 1014.6
20260506195004 66 0 0.0 0.0 0.00 0.08 0.08 70 1014.6
20260506194505 65 0 0.0 0.0 0.00 0.08 0.08 70 1014.6
20260506194004 65 0 0.0 0.9 0.00 0.08 0.08 69 1014.8
20260506193505 65 0 0.0 0.9 0.00 0.08 0.08 71 1014.7
20260506192504 64 0 0.0 0.9 0.00 0.08 0.08 72 1015.0
20260506191504 64 0 0.0 0.0 0.00 0.08 0.08 73 1014.9
20260506191005 64 0 0.0 0.0 0.00 0.08 0.08 73 1015.0
20260506190504 63 0 0.0 0.0 0.00 0.08 0.08 73 1015.0
20260506190006 63 0 0.0 0.0 0.00 0.08 0.08 74 1015.1
20260506185504 63 0 0.0 0.0 0.00 0.08 0.08 73 1015.2
20260506185005 63 0 0.0 0.0 0.00 0.08 0.08 73 1015.2
20260506183504 63 0 0.0 0.0 0.00 0.08 0.08 73 1015.4
20260506183006 63 0 0.0 0.0 0.00 0.08 0.08 73 1015.5
20260506182504 63 0 0.0 0.0 0.00 0.08 0.08 73 1015.4
20260506182004 63 0 0.0 0.0 0.00 0.08 0.08 72 1015.5
20260506181004 63 0 0.0 0.0 0.00 0.08 0.08 72 1015.5
20260506180504 63 0 0.0 0.0 0.00 0.08 0.08 73 1015.5
20260506180005 63 0 0.0 0.0 0.00 0.08 0.08 72 1015.6
20260506175004 63 0 0.0 0.0 0.00 0.08 0.08 73 1015.6
20260506174504 63 0 0.0 0.0 0.00 0.08 0.08 73 1015.7
20260506174004 64 0 0.0 0.0 0.00 0.08 0.08 72 1015.6
20260506173504 63 0 0.0 0.0 0.00 0.08 0.08 73 1015.7
20260506173004 63 0 0.0 0.0 0.00 0.08 0.08 74 1015.8
20260506172505 62 0 0.0 4.3 0.00 0.08 0.08 75 1015.8
20260506172004 62 0 0.0 4.3 0.00 0.08 0.08 75 1015.6
20260506171505 62 354 0.9 7.8 0.00 0.08 0.08 74 1015.7
20260506171004 62 355 0.9 7.8 0.00 0.08 0.08 74 1015.6
20260506170504 62 0 0.0 6.1 0.00 0.08 0.08 75 1015.6
20260506170004 62 11 0.9 7.0 0.00 0.08 0.08 74 1015.7
20260506165504 62 20 0.9 7.0 0.00 0.08 0.08 75 1015.8
20260506165004 62 34 0.9 5.2 0.00 0.08 0.08 74 1015.7
20260506164505 62 31 2.6 7.0 0.00 0.08 0.08 75 1015.7
20260506164004 61 30 4.3 8.7 0.00 0.08 0.08 76 1015.6
20260506163504 61 25 2.6 11.3 0.00 0.08 0.08 76 1015.5
20260506163004 61 10 0.9 11.3 0.00 0.08 0.08 75 1015.4
20260506162504 60 0 0.0 0.0 0.00 0.08 0.08 77 1015.5
20260506162004 60 0 0.0 0.0 0.00 0.08 0.08 77 1015.5
20260506161505 60 0 0.0 0.0 0.00 0.08 0.08 79 1015.4
20260506161004 59 0 0.0 0.0 0.00 0.08 0.08 79 1015.3
20260506155004 58 0 0.0 0.9 0.00 0.08 0.08 81 1015.2
20260506154505 57 0 0.0 0.0 0.00 0.08 0.08 80 1015.2